User: anonymous   Login
Location: Bushey
(51.6333°N, 0.3667°W)
Time: 14:11:22
(UTC+00:00)
Language:

Landsat 7 - Orbit

View from above orbital plane
View from above orbital plane
View from above satellite
View from above satellite

Ground track
Ground track

The orbit data is extracted from the following two-line orbital elements,

1 25682U 99020A   21125.93821391 -.00000193  00000-0 -33005-4 0  9990
2 25682  98.0351 184.3030 0001119  72.4085 287.7247 14.57198319173206
Epoch (UTC): 05 May 2021 22:31:01
Eccentricity: 0.0001119
inclination: 98.0351°
perigee height: 701 km
apogee height: 703 km
right ascension of ascending node: 184.3030°
argument of perigee: 72.4085°
revolutions per day: 14.57198319
mean anomaly at epoch: 287.7247°
orbit number at epoch: 17320

The dashed part of the orbit path shows where the satellite is in the earth's shadow,  

DLR